Regional Weather Roundup
Issued by NWS

Home | Current Version | Previous Version | Graphics & Text | Print | Product List | Glossary On
Versions: 1 2 3 4 5 6 7 8 9 10 11 12 13 14 15 16 17 18 19 20 21 22 23 24 25 26 27 28 29 30 31 32 33 34 35 36 37 38 39 40 41 42 43 44 45 46 47 48 49 50
000
ASUS43 KLOT 021100
RWRIL

ILLINOIS REGIONAL WEATHER ROUNDUP
NATIONAL WEATHER SERVICE CHICAGO/ROMEOVILLE IL
600 AM CDT THU OCT 02 2014

NOTE: "FAIR" INDICATES FEW OR NO CLOUDS BELOW 12,000 FEET WITH NO
SIGNIFICANT WEATHER AND/OR OBSTRUCTIONS TO VISIBILITY.

* THESE STATIONS ARE NOT UNDER NWS QUALITY CONTROL. THEY ALSO MAY NOT
  REPORT WEATHER SUCH AS PRECIPITATION OR FOG.

ILZ001-002-007-009-015-016-024-021200-
NORTHWEST ILLINOIS

CITY           SKY/WX    TMP DP  RH WIND       PRES   REMARKS
MOLINE         CLOUDY    63  61  93 CALM      29.82R FOG
$$

ILZ003-004-008-010-011-017-018-021200-
NORTH CENTRAL ILLINOIS

CITY           SKY/WX    TMP DP  RH WIND       PRES   REMARKS
ROCKFORD       CLOUDY    65  60  84 SE6       29.85R
FREEPORT*      CLOUDY    62  58  88 SE6       29.84S
$$

ILZ005-006-012>014-019>023-021200-
NORTHEAST ILLINOIS

CITY           SKY/WX    TMP DP  RH WIND       PRES   REMARKS
CHICAGO-OHARE  CLOUDY    64  57  78 CALM      29.85S
CHICAGO-MIDWAY NOT AVBL
AURORA         LGT RAIN  64  60  87 N7        29.87R FOG
LANSING*       CLOUDY    63  58  83 S6        29.88S
WAUKEGAN       NOT AVBL
DUPAGE AIRPORT LGT RAIN  64  60  87 NW3       29.87R
WHEELING       CLOUDY    64  58  80 S3        29.88R
NORTHERLY ISL    N/A     63  58  83 SE8         N/A
$$

LMZ740>746-021200-
SOUTHERN LAKE MICHIGAN

STATION/POSITION SKY/WX   TEMP    WIND        PRES    VSBY  WAVE
                          AIR SEA DIR/SP/G                  HT/PER
                          (F)     (DEG/KT/KT) (MB)    (MI)  (FT/S)
SOUTHERN BUOY              63 62  150/ 17/ 19 1011.5F         4/ 5
WAUKEGAN HARBOR            61     160/  9/ 10   N/A
HARRISON CRIB              63     150/ 16/ 21   N/A
BURNHAM HARBOR             63     150/  9/ 10   N/A
CALUMET HARBOR             63     150/  6/  9 1010.2F
MICHIGAN CITY              61     120/ 12/ 14   N/A
MICHIGAN CITY 6N           63 64  150/ 14/ 17   N/A           1/ 2
ST. JOSEPH                 62 63  110/ 12/ 16   N/A           1/ 2
$$

ILZ025>027-034>036-040-047-049-050-058-095>099-021200-
WEST-CENTRAL ILLINOIS

CITY           SKY/WX    TMP DP  RH WIND       PRES   REMARKS
QUINCY         CLOUDY    64  61  90 S7        29.80R
$$

ILZ028>032-037-038-041>044-048-051>054-059>061-021200-
CENTRAL ILLINOIS

CITY           SKY/WX    TMP DP  RH WIND       PRES   REMARKS
DECATUR        LGT RAIN  66  65  96 S6        29.91F
PEORIA         CLOUDY    68  64  87 S10       29.83R
SPRINGFIELD    CLOUDY    66  64  93 SE3       29.85F
TAYLORVILLE    NOT AVBL
$$

ILZ033-039-045-046-055>057-062-063-021200-
EAST-CENTRAL ILLINOIS

CITY           SKY/WX    TMP DP  RH WIND       PRES   REMARKS
MATTOON        LGT RAIN  66  66 100 W7        29.95R
$$

ILZ079-100>102-021200-
SOUTHWEST ILLINOIS

CITY           SKY/WX    TMP DP  RH WIND       PRES   REMARKS
BELLEVILLE     LGT RAIN  68  67  99 N3        29.89R
CAHOKIA*       MOCLDY    68  65  90 E5        29.88S
SPARTA*        CLOUDY    73  62  69 S8        29.89R
$$

ILZ064>066-069>071-074>076-080>082-084>086-088>090-092>094-021200-
SOUTH-CENTRAL ILLINOIS

CITY           SKY/WX    TMP DP  RH WIND       PRES   REMARKS
CARBONDALE     CLOUDY    71  61  70 S7        29.90R
$$

ILZ067-068-072-073-078-083-087-091-021200-
SOUTHEAST ILLINOIS

CITY           SKY/WX    TMP DP  RH WIND       PRES   REMARKS
LAWRENCEVILLE  MOCLDY    67  58  72 S10       29.92R
FLORA*         MOCLDY    66  61  84 CALM      29.91R
ROBINSON*      DRIZZLE   65  62  91 N6        29.93R
$$

ABBREVIATIONS USED IN REMARKS
   TC - TEMPERATURE IN CELSIUS
  WCI - WIND CHILL INDEX
   HX - HEAT INDEX
  VSB - VISIBILITY
$$



USA.gov is the U.S. government's official web portal to all federal, state and local government web resources and services.